Аэропорт
Звартноц (UDYZ)

 UDYZ / EVN
ЗЦ Ростов-на-Дону
Ереван (UDDD)
Ереван (UDDD)
 40.14730, 44.39590  / 2838 ft

 UDYZ 251200Z 17004KT 120V260 9999 FEW046 34/08 Q1011 R09/010070 NOSIG
 TAF UDYZ 250520Z 2506/2606 28006KT 9999 SCT040 TEMPO 2506/2520 VRB16G26KT -TSRA BKN030CB
Zvartnots AIP (Eurocontrol 2018), Zvartnots AIP (Eurocontrol 2018, no tables)
Название сценария Тип сценария Flight Simulator 9 Flight Simulator X Prepar3D v2 Prepar3D v3 Prepar3D v4 xPlane
Mega Scenery Zvartnots - Armenia 2008 бесплатный
Mega Zvartnots UDYZ [FSX] - v.2 бесплатный
UDYZ Zvartnots (Yerevan) бесплатный

Международный аэропорт Звартно́ц (арм. Զվարթնոց Միջազգային Օդանավակայան; IATA: EVN, ICAO: UDYZ) — международный аэропорт Еревана, столицы Армении. Расположен на западе города на территории района Малатия-Себастия, недалеко от города Звартноц, 12 км на запад от Еревана. Аэропорт Звартноц является главным международным транспортным узлом Армении и самым загруженным аэропортом страны.



2019 © VATRUS division (Privacy Policy)